[[[{"header":{"parameterUnit":"kt","parameterCategory":2,"dx":1,"dy":1,"la1":30.253999710083008,"la2":30.299108505249023,"lo1":-89.0895004272461,"lo2":-89.04439544677734,"nx":28,"ny":28,"refTime":"2022-10-23T21:00:00:Z","depth":0,"parameterNumber":1,"parameterNumberName":"U-component_of_WINDS"},"data":[-4.8654,-4.8774,-4.8838,-4.9006,-4.9092,-4.9218,-4.9285,-4.9377,-4.9468,-4.9627,-4.9731,-4.981,-4.9929,-5.007,-5.0187,-5.022,-5.0265,-5.026,-5.03,-5.0262,-5.0262,-5.0261,-5.0236,-5.0268,-5.0268,-5.0329,-5.0329,-5.0329,-4.862,-4.8706,-4.8814,-4.8962,-4.9055,-4.9099,-4.9221,-4.9296,-4.9409,-4.9522,-4.9628,-4.9774,-4.9899,-5.0022,-5.0154,-5.0214,-5.0243,-5.0245,-5.0241,-5.0259,-5.0222,-5.0194,-5.0219,-5.0219,-5.0219,-5.0219,-5.0219,-5.0219,-4.8576,-4.8645,-4.8773,-4.8891,-4.8983,-4.9082,-4.9161,-4.9256,-4.9363,-4.9507,-4.9566,-4.9695,-4.9822,-5.0015,-5.0096,-5.02,-5.021,-5.0233,-5.0239,-5.0243,-5.0238,-5.0142,-5.0226,-5.0226,-5.0226,-5.0226,-5.0226,0,-4.8564,-4.8613,-4.8721,-4.8848,-4.8938,-4.9043,-4.9151,-4.9202,-4.9332,-4.9415,-4.9542,-4.9627,-4.9795,-4.9922,-5.0062,-5.0143,-5.0199,-5.0212,-5.0229,-5.0201,-5.0158,-5.0182,-5.0117,-5.0209,-5.0209,-5.0209,-5.0209,-5.0209,-4.8524,-4.8598,-4.8763,-4.883,-4.8905,-4.9012,-4.909,-4.9199,-4.9276,-4.9427,-4.9484,-4.9614,-4.9723,-4.9917,-5.003,-5.0156,-5.0185,-5.0212,-5.0204,-5.0174,-5.0185,-5.0179,-5.0187,-5.0211,-5.0211,-5.021,-5.021,0,-4.8495,-4.8602,-4.8738,-4.8895,-4.8937,-4.9009,-4.9145,-4.922,-4.9306,-4.9421,-4.9455,-4.9589,-4.9713,-4.9822,-4.9986,-5.004,-5.0163,-5.0188,-5.0119,-5.013,-5.0165,-5.016,-5.0263,-5.0282,-5.025,-5.025,-5.025,0,-4.8503,-4.8596,-4.875,-4.8823,-4.8931,-4.9038,-4.9141,-4.9225,-4.9336,-4.9428,-4.9509,-4.9593,-4.9721,-4.9822,-4.9901,-5.0021,-5.0052,-5.0101,-5.012,-5.0093,-5.0087,-5.0136,-5.0134,-5.0163,-5.0162,-5.0162,-5.0161,0,-4.8447,-4.8639,-4.8758,-4.8819,-4.8997,-4.9051,-4.9128,-4.9253,-4.9329,-4.9445,-4.9495,-4.9623,-4.9693,-4.9791,-4.9891,-4.9881,-5.004,-5.0048,-5.009,-5.0087,-5.0118,-5.0115,-5.0179,-5.0161,-5.016,-5.016,-5.016,0,-4.847,-4.8583,-4.874,-4.889,-4.8936,-4.9015,-4.9147,-4.9241,-4.9367,-4.9422,-4.9514,-4.9581,-4.9695,-4.9694,-4.9853,-4.9812,-4.9877,-4.9934,-4.9939,-4.9955,-4.9951,-4.9971,-5.0022,-5.0031,-4.9971,-4.9969,-4.9968,0,-4.8376,-4.8563,-4.8656,-4.8803,-4.8905,-4.8988,-4.9078,-4.9188,-4.9268,-4.9367,-4.9457,-4.957,-4.9593,-4.9643,-4.9707,-4.9805,-4.9858,-4.9801,-4.9944,-4.9947,-4.9906,-4.9954,-4.9934,-4.9999,-4.9949,-4.9951,-4.9953,0,-4.8316,-4.8531,-4.855,-4.8625,-4.8786,-4.8871,-4.8975,-4.911,-4.917,-4.9285,-4.9375,-4.9536,-4.956,-4.9643,-4.9711,-4.9772,-4.9825,-4.9789,-4.9794,-4.9792,-4.9949,-4.9929,-4.994,-4.9858,-4.986,-4.9862,-4.9938,0,-4.8325,-4.8433,-4.8491,-4.8652,-4.8735,-4.8834,-4.8949,-4.9022,-4.9078,-4.9161,-4.9296,-4.9415,-4.9553,-4.9595,-4.9651,-4.9756,-4.9755,-4.9779,-4.9786,-4.9817,-4.9845,-4.9856,-4.9735,-4.9736,-4.9737,-4.9738,0,0,-4.8209,-4.8365,-4.8464,-4.8568,-4.8644,-4.8729,-4.8824,-4.8909,-4.9078,-4.9129,-4.9134,-4.9377,-4.9474,-4.9626,-4.9645,-4.9701,-4.973,-4.9715,-4.9802,-4.9808,-4.9815,-4.9842,-4.9852,-4.9739,-4.9739,-4.974,-4.974,0,-4.8236,-4.833,-4.8422,-4.8514,-4.8654,-4.8737,-4.8759,-4.8912,-4.8969,-4.9102,-4.9171,-4.9266,-4.9457,-4.9551,-4.9623,-4.97,-4.9746,-4.9734,-4.9735,-4.9805,-4.981,-4.9816,-4.9843,-4.9852,-4.9742,-4.9742,-4.9742,0,-4.8197,-4.8309,-4.8366,-4.8543,-4.8635,-4.8738,-4.8774,-4.888,-4.8958,-4.9047,-4.9177,-4.9259,-4.9393,-4.9522,-4.9584,-4.959,-4.9754,-4.9723,-4.9722,-4.9731,-4.9804,-4.9811,-4.9816,-4.9739,-4.9739,-4.9738,0,0,-4.8205,-4.8305,-4.846,-4.8557,-4.8611,-4.8735,-4.8802,-4.8865,-4.8983,-4.903,-4.9136,-4.9249,-4.9363,-4.9434,-4.9546,-4.9671,-4.9708,-4.9718,-4.9718,-4.9718,-4.9726,-4.9799,-4.9806,-4.9736,-4.9736,-4.9736,0,0,-4.8209,-4.8391,-4.8427,-4.8554,-4.8664,-4.8823,-4.8879,-4.8927,-4.9039,-4.9041,-4.9153,-4.9189,-4.9311,-4.9389,-4.935,-4.9551,-4.9555,-4.9567,-4.9495,-4.9497,-4.9497,-4.9475,-4.9404,0,0,0,0,0,-4.8295,-4.8369,-4.8399,-4.8437,-4.8662,-4.8806,-4.8836,-4.893,-4.8931,-4.8973,-4.9069,-4.9115,-4.9391,-4.936,-4.9397,-4.9439,-4.9712,-4.9717,-4.9721,-4.9658,-4.9659,-4.9659,0,0,0,0,0,0,-4.8311,-4.8358,-4.8397,-4.8558,-4.8609,-4.8804,-4.8827,-4.8855,-4.8929,-4.8935,-4.9095,-4.912,-4.9204,-4.9348,-4.938,-4.9417,-4.9393,-4.9714,-4.9718,-4.9721,-4.9658,-4.9659,-4.9659,0,0,0,0,0,-4.8324,-4.8362,-4.8697,-4.8558,-4.8602,-4.8745,-4.8825,-4.8849,-4.8907,-4.9057,-4.9083,-4.8972,-4.9202,-4.9236,-4.9367,-4.94,-4.9371,-4.9383,-4.9716,-4.9719,-4.9722,-4.9658,0,0,0,0,0,0,-4.8334,-4.8385,-4.8708,-4.8726,-4.8536,-4.8736,-4.877,-4.8842,-4.9026,-4.9053,-4.8938,-4.8941,-4.9202,-4.9228,-4.9254,-4.9389,-4.9354,-4.9366,-4.9373,-4.9719,-4.9721,-4.9723,0,0,0,0,0,0,-4.8365,-4.8399,-4.8717,-4.8685,-4.87,-4.8727,-4.8758,-4.8883,-4.9027,-4.8898,-4.8906,-4.8937,-4.9164,-4.9223,-4.9243,-4.9435,-4.934,-4.9352,-4.936,-4.9365,-4.972,-4.9722,0,0,0,0,0,0,-4.8381,-4.841,-4.8681,-4.8692,-4.8705,-4.8905,-4.884,-4.9065,-4.8998,-4.8888,-4.8995,-4.8993,-4.9158,-4.918,-4.9236,-4.9419,-4.9431,-4.9341,-4.9349,-4.9354,-4.9358,0,0,0,0,0,0,0,-4.8394,-4.8178,-4.8606,-4.8698,-4.8709,-4.8885,-4.8889,-4.8894,-4.8998,-4.8996,-4.8995,-4.8994,-4.9276,-4.9288,-4.9301,-4.9405,0,0,-4.934,-4.9345,0,0,0,0,0,0,0,0,-4.8168,-4.8176,-4.8607,-4.861,-4.8614,-4.8885,-4.8889,-4.8893,-4.8997,-4.8996,-4.8995,-4.8994,-4.9279,-4.9289,-4.93,0,0,0,0,0,0,0,0,0,0,0,0,0,0,0,-4.8607,-4.861,0,-4.8886,-4.8889,-4.8892,-4.8997,-4.8996,-4.8995,-4.8995,-4.9282,-4.929,-4.9299,0,0,0,0,0,0,0,0,0,0,0,0,0,0,0,0,0,0,0,0,0,0,0,0,0,0,0,0,0,0,0,0,0,0,0,0,0,0,0,0,0,0,0,0,0,0,0,0,0,0,0,0,0,0,0,0,0,0,0,0,0,0,0,0,0,0,0,0,0]}],[{"header":{"parameterUnit":"kt","parameterCategory":2,"dx":1,"dy":1,"la1":30.253999710083008,"la2":30.299108505249023,"lo1":-89.0895004272461,"lo2":-89.04439544677734,"nx":28,"ny":28,"refTime":"2022-10-23T21:00:00:Z","depth":0,"parameterNumber":2,"parameterNumberName":"V-component_of_WINDS"},"data":[11.844,11.8594,11.8607,11.8788,11.883,11.8956,11.9004,11.9069,11.9122,11.9273,11.9362,11.9388,11.9445,11.9553,11.9648,11.9657,11.9698,11.9746,11.9748,11.9524,11.9493,11.9464,11.9429,11.9754,11.9755,11.9979,11.9981,11.9983,11.8282,11.8325,11.8423,11.8527,11.8612,11.8574,11.8653,11.8726,11.8839,11.8905,11.8992,11.9125,11.923,11.927,11.9374,11.9446,11.9433,11.9473,11.9468,11.9477,11.9238,11.9201,11.9482,11.9482,11.9482,11.9482,11.9482,11.9482,11.7996,11.8088,11.8156,11.8263,11.8318,11.8387,11.8476,11.8505,11.8601,11.871,11.8702,11.8829,11.8896,11.9023,11.9067,11.9166,11.9122,11.9169,11.9181,11.9193,11.9206,11.8886,11.9183,11.9183,11.9182,11.9181,11.9181,0,11.779,11.7794,11.7888,11.7987,11.8064,11.8141,11.8212,11.8267,11.8273,11.8352,11.8466,11.8533,11.8665,11.8772,11.8869,11.8905,11.887,11.8867,11.8899,11.8905,11.8901,11.8907,11.8518,11.8857,11.8854,11.8852,11.8851,11.885,11.7505,11.7608,11.7683,11.7748,11.7789,11.7893,11.7956,11.7954,11.8021,11.8108,11.8187,11.8295,11.838,11.8559,11.8588,11.8686,11.867,11.8799,11.8683,11.8687,11.8674,11.8668,11.8679,11.8821,11.8824,11.8827,11.883,0,11.7343,11.7358,11.7521,11.7584,11.7603,11.7711,11.7764,11.7854,11.787,11.7996,11.8025,11.8051,11.8161,11.8169,11.8295,11.8296,11.8478,11.8458,11.8456,11.8453,11.8571,11.856,11.8947,11.8998,11.866,11.8663,11.8666,0,11.7105,11.724,11.7255,11.7348,11.7499,11.7492,11.7641,11.7669,11.7724,11.7823,11.7784,11.7878,11.7872,11.7967,11.7968,11.8117,11.814,11.815,11.8148,11.8154,11.8153,11.8188,11.8172,11.8139,11.8137,11.8135,11.8133,0,11.6851,11.7015,11.7167,11.7206,11.7284,11.7356,11.7391,11.7451,11.7512,11.7592,11.7632,11.7725,11.7776,11.785,11.785,11.7772,11.8031,11.7924,11.8041,11.8042,11.8097,11.8093,11.8435,11.8131,11.813,11.813,11.8129,0,11.6659,11.6741,11.6958,11.7022,11.7065,11.7164,11.7256,11.7343,11.7408,11.7415,11.7478,11.7451,11.758,11.7474,11.7651,11.755,11.7603,11.7623,11.7632,11.7643,11.7524,11.7717,11.804,11.8075,11.7656,11.7652,11.7649,0,11.6366,11.6587,11.6581,11.6787,11.689,11.684,11.695,11.7008,11.7026,11.7116,11.7134,11.7235,11.7157,11.719,11.7277,11.73,11.7432,11.7282,11.7412,11.7417,11.7398,11.7696,11.7742,11.7969,11.7598,11.7603,11.7607,0,11.6139,11.623,11.6267,11.6312,11.6386,11.647,11.6596,11.6695,11.6755,11.6823,11.6928,11.7069,11.7016,11.7069,11.7055,11.7146,11.7342,11.7076,11.7077,11.7125,11.7572,11.7616,11.7654,11.7314,11.732,11.7325,11.7567,0,11.5851,11.5961,11.6061,11.6156,11.6222,11.6349,11.6355,11.6424,11.6405,11.642,11.6573,11.6619,11.6717,11.676,11.674,11.6944,11.6911,11.6852,11.6747,11.6942,11.7022,11.7055,11.6628,11.6625,11.6622,11.662,0,0,11.5567,11.5724,11.571,11.5831,11.5885,11.5828,11.5964,11.601,11.6103,11.6143,11.6085,11.6289,11.6328,11.6513,11.6574,11.6612,11.665,11.6579,11.6849,11.6875,11.6898,11.6984,11.7018,11.6616,11.6615,11.6614,11.6613,0,11.5463,11.5504,11.5638,11.5685,11.5754,11.5762,11.5795,11.5852,11.5867,11.6015,11.5964,11.6056,11.6216,11.6266,11.6311,11.6558,11.6513,11.6587,11.672,11.6823,11.6852,11.6877,11.6967,11.7,11.6607,11.6607,11.6607,0,11.5241,11.5284,11.5348,11.5467,11.5511,11.5616,11.5509,11.5623,11.5701,11.5628,11.5775,11.5801,11.5865,11.6038,11.6115,11.6064,11.639,11.6286,11.6302,11.631,11.641,11.6445,11.6476,11.6068,11.6066,11.6064,0,0,11.515,11.525,11.5292,11.5444,11.5476,11.5488,11.5543,11.5529,11.5588,11.5611,11.5642,11.5701,11.5794,11.5856,11.5943,11.6132,11.6144,11.6219,11.6245,11.6265,11.6285,11.639,11.6425,11.6057,11.6057,11.6057,0,0,11.5105,11.516,11.5129,11.5307,11.5366,11.5415,11.5508,11.5472,11.5551,11.5536,11.5515,11.553,11.5691,11.5716,11.5621,11.5906,11.5802,11.5825,11.5883,11.5915,11.594,11.593,11.5515,0,0,0,0,0,11.4999,11.5153,11.5125,11.5155,11.5303,11.5431,11.545,11.5437,11.5365,11.544,11.546,11.5407,11.5662,11.5577,11.5607,11.5712,11.5965,11.5982,11.5997,11.6116,11.615,11.6178,0,0,0,0,0,0,11.5011,11.5048,11.5121,11.5177,11.521,11.5426,11.5301,11.5302,11.5357,11.5345,11.5405,11.5409,11.5399,11.5561,11.5588,11.5688,11.5506,11.5972,11.5986,11.5998,11.6128,11.6155,11.6179,0,0,0,0,0,11.502,11.5049,11.529,11.5175,11.5204,11.5224,11.5295,11.5295,11.5337,11.5367,11.5369,11.5322,11.5402,11.5424,11.5577,11.5676,11.5487,11.5497,11.5981,11.5992,11.6001,11.6141,0,0,0,0,0,0,11.5027,11.505,11.5295,11.5303,11.5115,11.5211,11.5226,11.5289,11.5354,11.5358,11.5282,11.5272,11.5406,11.5422,11.5439,11.5673,11.5472,11.5482,11.5489,11.5989,11.5998,11.6005,0,0,0,0,0,0,11.5034,11.5057,11.5299,11.5224,11.5224,11.52,11.5213,11.534,11.5356,11.5266,11.5259,11.5277,11.538,11.5422,11.5435,11.5633,11.546,11.547,11.5477,11.5481,11.5996,11.6003,0,0,0,0,0,0,11.5043,11.5064,11.5222,11.5222,11.5221,11.5312,11.5311,11.5463,11.5293,11.5264,11.5277,11.527,11.5382,11.5394,11.5433,11.5625,11.5631,11.546,11.5467,11.5472,11.5475,0,0,0,0,0,0,0,11.5051,11.4919,11.5246,11.5219,11.5218,11.538,11.5382,11.5384,11.5292,11.5285,11.5279,11.5273,11.5404,11.5415,11.5426,11.5619,0,0,11.5459,11.5464,0,0,0,0,0,0,0,0,11.491,11.4917,11.5247,11.5248,11.525,11.538,11.5382,11.5384,11.5291,11.5285,11.528,11.5276,11.5407,11.5415,11.5424,0,0,0,0,0,0,0,0,0,0,0,0,0,0,0,11.5247,11.5248,0,11.538,11.5382,11.5383,11.529,11.5286,11.5281,11.5278,11.5409,11.5416,11.5424,0,0,0,0,0,0,0,0,0,0,0,0,0,0,0,0,0,0,0,0,0,0,0,0,0,0,0,0,0,0,0,0,0,0,0,0,0,0,0,0,0,0,0,0,0,0,0,0,0,0,0,0,0,0,0,0,0,0,0,0,0,0,0,0,0,0,0,0,0]}]]]